Location: Arborea
(39.7744°N, 8.5819°E)
Time: 22:00:41
(UTC+00:00)

H-2A R/B - Pass Details

Date: 24 October 2021
Orbit: 577 x 653 km, 98.5° (Epoch: 06 December)

Event Time Altitude Azimuth Distance (km) Brightness Sun altitude
Exits shadow 17:14:00 - 58° (ENE) 2,032 4.1 -8.4°
Reaches altitude 10° 17:14:31 10° 64° (ENE) 1,924 4.0 -8.5°
Maximum altitude 17:16:32 13° 93° (E) 1,725 3.7 -8.9°
Drops below altitude 10° 17:18:33 10° 122° (ESE) 1,935 4.1 -9.3°
Sets 17:21:49 0° 150° (SSE) 2,850 5.2 -9.9°
